NORSAT 4

导读

NORSAT 4卫星定于2025年1月14日发射,目前发射国家尚未公布。作为NORSAT系列卫星的最新成员,它延续了该系列在卫星通信领域的技术积累,将服务于全球卫星通信网络扩展,提升偏远地区通信覆盖能力。该卫星将部署在预定轨道,为用户提供稳定的通信传输服务,填补部分区域通信基础设施缺口,助力全球互联互通建设,推动卫星通信应用进一步普及。

基本信息
目录编号:
62702
目录名称:
NORSAT 4
国际标识:
2025-009CX
轨道中心:
EARTH
卫星名称:
NORSAT 4
卫星全名:
NORSAT 4
卫星状态:
在轨 (已飞行599 天)
发射日期:
2025-01-14 UTC
国别 :
挪威 (NO)
星等 :
--
轨道信息
数据来源 国际轨道数据
星历时间: 2026-09-04T22:48:29+0800
16小时前
查看轨道信息
半长轴: 6959.642km
偏心率: 0.0002957
轨道倾角: 97.700°
近地点辐角 114.921°
升交点赤经 324.925°
平近点角 245.232°
近地点: 579.447km
远地点: 583.563km
周期: 96.303分钟
每日圈数: 14.952798
详细信息
使用方式:
暂无
2D轨道图
3D轨道图
轨道高度分析图
轨道倾角分析图
轨道综合分析图
查看轨道综合分析图